AFL324 YMML-YSSY

Flight info

Callsign AFL324
Flight time N/A
Altitude 33000
Route DOSEL2/27 DOSEL Y59 RIVET
Aircraft T154/M-SDGRWY/S

Departure

Time 2026-05-05 12:20
Airport Melbourne Airport (YMML)

Arrival

Time N/A
Airport Sydney Kingsford Smith International Airport (YSSY)
Time Latitude Longitude Altitude Speed Heading
2026-05-05 11:41 -37.67263 144.84613 445 ft 0 kts 172°
2026-05-05 11:49 -37.67264 144.84613 445 ft 0 kts 172°
2026-05-05 12:07 -37.67263 144.84613 445 ft 0 kts 172°
2026-05-05 12:07 -37.67249 144.84611 445 ft 2 kts 176°
2026-05-05 12:08 -37.67234 144.84613 445 ft 2 kts 195°
2026-05-05 12:08 -37.67220 144.84621 445 ft 2 kts 210°
2026-05-05 12:08 -37.67208 144.84633 445 ft 2 kts 225°
2026-05-05 12:08 -37.67199 144.84647 445 ft 2 kts 240°
2026-05-05 12:09 -37.67194 144.84665 445 ft 2 kts 255°
2026-05-05 12:09 -37.67192 144.84674 445 ft 1 kts 262°
2026-05-05 12:09 -37.67192 144.84677 445 ft 0 kts 261°
2026-05-05 12:12 -37.67193 144.84670 445 ft 3 kts 261°
2026-05-05 12:12 -37.67202 144.84596 445 ft 10 kts 261°
2026-05-05 12:12 -37.67209 144.84503 445 ft 11 kts 278°
2026-05-05 12:12 -37.67200 144.84381 445 ft 14 kts 265°
2026-05-05 12:13 -37.67212 144.84251 445 ft 14 kts 263°
2026-05-05 12:13 -37.67223 144.84120 445 ft 12 kts 271°
2026-05-05 12:13 -37.67165 144.84055 445 ft 12 kts 353°
2026-05-05 12:13 -37.67061 144.84035 445 ft 17 kts 351°
2026-05-05 12:14 -37.66939 144.84012 445 ft 17 kts 352°
2026-05-05 12:14 -37.66812 144.83989 445 ft 18 kts 351°
2026-05-05 12:14 -37.66679 144.83963 445 ft 19 kts 352°
2026-05-05 12:14 -37.66552 144.83939 445 ft 16 kts 351°
2026-05-05 12:15 -37.66516 144.83977 445 ft 11 kts 83°
2026-05-05 12:15 -37.66522 144.84106 445 ft 13 kts 94°
2026-05-05 12:15 -37.66527 144.84198 445 ft 9 kts 95°
2026-05-05 12:15 -37.66525 144.84328 445 ft 21 kts 82°
2026-05-05 12:16 -37.66497 144.84520 445 ft 22 kts 82°
2026-05-05 12:16 -37.66476 144.84706 445 ft 20 kts 66°
2026-05-05 12:16 -37.66395 144.84779 445 ft 11 kts
2026-05-05 12:16 -37.66360 144.84784 445 ft 0 kts
2026-05-05 12:18 -37.66330 144.84787 445 ft 12 kts
2026-05-05 12:19 -37.66255 144.84795 445 ft 6 kts
2026-05-05 12:19 -37.66228 144.84770 445 ft 5 kts 292°
2026-05-05 12:19 -37.66222 144.84726 445 ft 5 kts 274°
2026-05-05 12:19 -37.66216 144.84634 445 ft 26 kts 275°
2026-05-05 12:20 -37.66182 144.84032 445 ft 106 kts 274°
2026-05-05 12:20 -37.66107 144.82793 464 ft 163 kts 275°
2026-05-05 12:20 -37.66014 144.81349 990 ft 164 kts 275°
2026-05-05 12:20 -37.65894 144.79875 1455 ft 173 kts 276°
2026-05-05 12:21 -37.65783 144.78339 1919 ft 180 kts 275°
2026-05-05 12:21 -37.65701 144.76772 2499 ft 181 kts 273°
2026-05-05 12:21 -37.65636 144.75067 2869 ft 207 kts 272°
2026-05-05 12:21 -37.65543 144.73248 3681 ft 208 kts 275°
2026-05-05 12:22 -37.65422 144.71478 4604 ft 208 kts 275°
2026-05-05 12:22 -37.65296 144.69446 4737 ft 258 kts 274°
2026-05-05 12:22 -37.65029 144.67102 5469 ft 279 kts 291°
2026-05-05 12:22 -37.63846 144.65028 6099 ft 304 kts 325°
2026-05-05 12:23 -37.61996 144.63945 7504 ft 302 kts 342°
2026-05-05 12:23 -37.59962 144.63304 8657 ft 308 kts 345°
2026-05-05 12:23 -37.57892 144.62711 9969 ft 305 kts 344°
2026-05-05 12:23 -37.55853 144.62177 11254 ft 305 kts 356°
2026-05-05 12:24 -37.53718 144.62733 11967 ft 325 kts 26°
2026-05-05 12:24 -37.51915 144.64522 12868 ft 336 kts 46°
2026-05-05 12:24 -37.50439 144.66824 14112 ft 334 kts 54°
2026-05-05 12:24 -37.49155 144.69244 15222 ft 336 kts 53°
2026-05-05 12:25 -37.47755 144.71619 16134 ft 344 kts 53°
2026-05-05 12:25 -37.46392 144.74286 16414 ft 373 kts 60°
2026-05-05 12:25 -37.45112 144.77266 17020 ft 389 kts 61°
2026-05-05 12:25 -37.43863 144.80199 18543 ft 377 kts 60°
2026-05-05 12:26 -37.42628 144.83003 20085 ft 364 kts 59°
2026-05-05 12:26 -37.41427 144.85686 21408 ft 357 kts 59°
2026-05-05 12:26 -37.40205 144.88373 22624 ft 352 kts 59°
2026-05-05 12:26 -37.38998 144.91010 23705 ft 351 kts 59°
2026-05-05 12:27 -37.37796 144.93628 24618 ft 353 kts 59°
2026-05-05 12:27 -37.36562 144.96309 25384 ft 360 kts 59°
2026-05-05 12:27 -37.35292 144.99062 26035 ft 370 kts 59°
2026-05-05 12:27 -37.33994 145.01875 26737 ft 378 kts 59°
2026-05-05 12:28 -37.32657 145.04773 27522 ft 384 kts 59°
2026-05-05 12:28 -37.31314 145.07681 28271 ft 390 kts 59°
2026-05-05 12:28 -37.29938 145.10654 28845 ft 400 kts 59°
2026-05-05 12:28 -37.28540 145.13675 29491 ft 408 kts 59°
2026-05-05 12:29 -37.27090 145.16805 30051 ft 418 kts 59°
2026-05-05 12:29 -37.25622 145.19969 30551 ft 429 kts 59°
2026-05-05 12:29 -37.24112 145.23221 31112 ft 437 kts 59°
2026-05-05 12:29 -37.22570 145.26540 31718 ft 444 kts 59°
2026-05-05 12:30 -37.21000 145.29916 32353 ft 450 kts 59°
2026-05-05 12:30 -37.19427 145.33293 32850 ft 459 kts 59°
2026-05-05 12:30 -37.17782 145.36822 32957 ft 476 kts 58°
2026-05-05 12:30 -37.16042 145.40422 33106 ft 489 kts 53°
2026-05-05 12:31 -37.14056 145.43878 33333 ft 500 kts 53°
2026-05-05 12:31 -37.11985 145.47482 33326 ft 515 kts 53°
2026-05-05 12:31 -37.07914 145.54736 33272 ft 500 kts 54°
2026-05-05 12:32 -37.03928 145.61693 33224 ft 490 kts 53°
2026-05-05 12:32 -36.99931 145.68623 33184 ft 491 kts 53°